STARLINK-35290, 65846

Orbit data source: Space-Track

STARLINK-35290, 65846 is a payload satellite owned by SpaceX/Seattle (US) in LEO that was launched on Mon, 29 Sep 2025 UTC via an FALCON 9 launch vehicle from the Air Force Western Test Range (AFWTR). Payload-class satellites include a variety of spacecraft equipped with specific instruments for various scientific and technological missions. These include communications satellites like Starlink; space stations such as the ISS; scientific satellites like the Hubble; Earth observation satellites from companies like Planet Labs, Umbra, and HawkEye 360; GPS; miniature CubeSats for education and research; and military/defense satellites.

Loading next visibility...
Identifier
65846, 2025-221Z
Orbit
LEO
Country
Flag of USUS
Related business
Manufacturer
SpaceX/Seattle
Mission
Operational Commercial Communications
Bus & Motor
STARLINK V2MO, Unknown motor
Mass
575 kg wet, ~530 kg dry
Launch date (UTC)
2025-09-29 (1 month ago)
Launch vehicle
FALCON 9
Launch site
Air Force Western Test Range (AFWTR)
Object type
Payload
Rocket body
Debris
Shape & HBR
Box + 2 Pan, 17.7 m
Radar Cross Section
36.964 m²

Expand to show TLE details & history
Last TLE update: 2 days ago

TLE from 2 days ago
0 STARLINK-35290
1 65846U 25221Z   25312.83335647 -.00349073  00000-0 -11936-1 0  9992
2 65846  53.1591 289.5927 0001704  84.8329 190.3484 15.31249602  6023
Epoch: 2025-11-08T20:00Z
TLE epoch observation values (Epoch: 2025-11-08T20:00:01.999Z)
Latitude
-53.00207°
Longitude
-140.09891°
Altitude
491.656 km
Speed
7.618 km/s
True Right ascension
13h 52m 40s
True Declination
-52° 49' 49"
Sunlit
Object was in daylight at epoch
Visualization orbit readout
Latitude
Unknown
Longitude
Unknown
Altitude
Unknown
Speed
Unknown
Apparent Right ascension
Unknown
Apparent Declination
Unknown
Sunlit
N/A
Visualization observer readout
Local Sidereal Time
04:39:11
Azimuth
Unknown
Elevation
Unknown
Doppler factor
Unknown
Orbital elements
Apogee altitude
473.507 km
Perigee altitude
471.172 km
Semi-major axis
6,850.477 km
Eccentricity
0.00017
Inclination
53.1591°
RAAN
289.5927°
Arg. of periapsis
84.8329°
True anomaly
190.34489°
Mean anomaly
190.3484°
Eccentric anomaly
190.34665°
Mean motion
3.82791 °/min
Orbital period
94.05 mins
BSTAR
-0.011936
Loading maneuver chart data...
Computing Atmospheric mass density...
Loading historical data...
Loading historical data...
Loading historical data...
Loading historical data...
Loading historical data...
Loading historical data...
Loading historical data...

Documentation

Showing up to 5 results
|